EW7469 Weather Reports


Display with metric or nautical units.
time (UTC)temp
F
wind
direction
speed
MPH
gust
MPH
rain 1hr
in
rain 24hr
in
rain mn
in
humidity
%
barometer
mb
20260905204532 77 32 2.0 4.0 0.36 0.36 0.36 91 1012.2
20260905204028 77 55 1.0 3.0 0.36 0.36 0.36 88 1012.2
20260905203554 77 70 0.0 5.0 0.36 0.36 0.36 86 1012.2
20260905203047 78 101 1.0 9.0 0.36 0.36 0.36 84 1012.1
20260905202534 79 58 2.0 12.0 0.36 0.36 0.36 81 1012.1
20260905202029 80 84 2.0 13.0 0.36 0.36 0.36 80 1012.1
20260905201525 81 184 1.0 7.0 0.35 0.35 0.35 78 1012.3
20260905201054 83 144 4.0 7.0 0.31 0.31 0.31 74 1012.3
20260905200529 86 143 2.0 7.0 0.30 0.30 0.30 72 1012.3
20260905200034 88 146 1.0 7.0 0.29 0.29 0.29 73 1011.7
20260905195530 90 68 1.0 4.0 0.19 0.19 0.19 73 1011.7
20260905195026 91 105 2.0 4.0 0.02 0.02 0.02 66 1011.7
20260905194523 91 104 1.0 7.0 0.00 0.00 0.00 65 1011.8
20260905194034 92 144 2.0 7.0 0.00 0.00 0.00 63 1011.8
20260905193531 93 137 0.0 4.0 0.00 0.00 0.00 63 1011.8
20260905193030 93 48 1.0 9.0 0.00 0.00 0.00 62 1012.0
20260905192537 94 50 4.0 9.0 0.00 0.00 0.00 59 1012.0
20260905192033 96 37 1.0 6.0 0.00 0.00 0.00 58 1012.0
20260905191528 97 68 2.0 6.0 0.00 0.00 0.00 57 1012.2
20260905191037 98 169 1.0 5.0 0.00 0.00 0.00 56 1012.2
20260905190533 98 49 1.0 5.0 0.00 0.00 0.00 55 1012.2
20260905190030 98 122 3.0 4.0 0.00 0.00 0.00 46 1012.0
20260905185524 97 160 3.0 6.0 0.00 0.00 0.00 48 1012.0
20260905185037 97 169 2.0 7.0 0.00 0.00 0.00 44 1012.0
20260905184533 97 304 2.0 7.0 0.00 0.00 0.00 46 1012.0
20260905184028 97 241 1.0 7.0 0.00 0.00 0.00 51 1012.0
20260905183535 96 205 3.0 8.0 0.00 0.00 0.00 48 1012.0
20260905183030 96 197 3.0 8.0 0.00 0.00 0.00 48 1012.2
20260905182527 95 269 3.0 5.0 0.00 0.00 0.00 49 1012.2
20260905182035 95 288 1.0 7.0 0.00 0.00 0.00 51 1012.2
20260905181542 95 303 2.0 7.0 0.00 0.00 0.00 53 1012.4
20260905181031 95 272 1.0 5.0 0.00 0.00 0.00 50 1012.4
20260905180527 96 258 2.0 6.0 0.00 0.00 0.00 48 1012.4
20260905180023 95 359 3.0 6.0 0.00 0.00 0.00 53 1012.6
20260905175531 95 224 1.0 10.0 0.00 0.00 0.00 51 1012.6
20260905175025 94 292 3.0 10.0 0.00 0.00 0.00 54 1012.6
20260905174555 94 304 2.0 5.0 0.00 0.00 0.00 54 1012.8
20260905174029 93 248 1.0 5.0 0.00 0.00 0.00 55 1012.8
20260905173524 93 264 1.0 6.0 0.00 0.00 0.00 55 1012.8
20260905173040 92 270 1.0 6.0 0.00 0.00 0.00 58 1013.0
20260905172535 92 259 4.0 6.0 0.00 0.00 0.00 58 1013.0
20260905172032 92 301 1.0 6.0 0.00 0.00 0.00 57 1013.0
20260905171529 93 325 2.0 6.0 0.00 0.00 0.00 56 1013.2
20260905171037 93 331 1.0 5.0 0.00 0.00 0.00 56 1013.2
20260905170533 93 245 1.0 10.0 0.00 0.00 0.00 52 1013.2
20260905170031 93 208 4.0 10.0 0.00 0.00 0.00 55 1013.3
20260905165526 92 226 4.0 6.0 0.00 0.00 0.00 54 1013.3
20260905165036 92 243 3.0 7.0 0.00 0.00 0.00 55 1013.3
20260905164531 91 240 3.0 7.0 0.00 0.00 0.00 57 1013.5
20260905164027 91 317 4.0 6.0 0.00 0.00 0.00 60 1013.5
20260905163523 91 278 3.0 11.0 0.00 0.00 0.00 60 1013.5
20260905163038 91 240 2.0 11.0 0.00 0.00 0.00 59 1013.8
20260905162534 91 253 4.0 8.0 0.00 0.00 0.00 59 1013.8
20260905162030 91 207 3.0 9.0 0.00 0.00 0.00 61 1013.8
20260905161544 91 269 4.0 9.0 0.00 0.00 0.00 59 1013.9
20260905161039 91 279 2.0 9.0 0.00 0.00 0.00 62 1013.9
20260905160534 91 183 3.0 9.0 0.00 0.00 0.00 62 1013.9
20260905160030 90 243 4.0 10.0 0.00 0.00 0.00 61 1014.2
20260905155546 90 205 1.0 10.0 0.00 0.00 0.00 62 1014.2
20260905155034 90 234 5.0 9.0 0.00 0.00 0.00 62 1014.2
20260905154550 89 139 3.0 10.0 0.00 0.00 0.00 64 1014.3
20260905154032 89 172 4.0 10.0 0.00 0.00 0.00 63 1014.3
20260905153528 89 245 2.0 10.0 0.00 0.00 0.00 66 1014.3
20260905153037 88 237 4.0 10.0 0.00 0.00 0.00 66 1014.3
20260905152534 88 226 4.0 9.0 0.00 0.00 0.00 68 1014.3
20260905152030 88 244 4.0 10.0 0.00 0.00 0.00 69 1014.3
20260905151559 88 283 4.0 10.0 0.00 0.00 0.00 69 1014.3
20260905151034 87 186 5.0 10.0 0.00 0.00 0.00 70 1014.3
20260905150531 87 229 4.0 9.0 0.00 0.00 0.00 72 1014.3
20260905150028 87 239 5.0 9.0 0.00 0.00 0.00 73 1014.3
20260905145535 87 204 4.0 10.0 0.00 0.00 0.00 74 1014.3
20260905145030 87 200 3.0 12.0 0.00 0.00 0.00 73 1014.3
20260905144527 86 195 5.0 12.0 0.00 0.00 0.00 75 1014.3
20260905144056 86 278 4.0 6.0 0.00 0.00 0.00 77 1014.3
20260905143529 86 236 4.0 9.0 0.00 0.00 0.00 76 1014.3
20260905143025 86 259 3.0 9.0 0.00 0.00 0.00 78 1014.3
20260905142532 85 177 2.0 7.0 0.00 0.00 0.00 80 1014.3
20260905142028 85 239 3.0 7.0 0.00 0.00 0.00 80 1014.3
20260905141525 85 220 4.0 7.0 0.00 0.00 0.00 82 1014.3
20260905141040 84 228 4.0 6.0 0.00 0.00 0.00 83 1014.3
20260905140535 84 259 2.0 7.0 0.00 0.00 0.00 87 1014.3
20260905140028 83 237 4.0 7.0 0.00 0.00 0.00 88 1014.5
20260905135525 83 261 3.0 7.0 0.00 0.00 0.00 89 1014.5
20260905135034 83 224 2.0 7.0 0.00 0.00 0.00 91 1014.5
20260905134528 82 214 2.0 5.0 0.00 0.00 0.00 93 1014.4
20260905134044 82 280 1.0 4.0 0.00 0.00 0.00 96 1014.4
20260905133553 82 274 1.0 4.0 0.00 0.00 0.00 97 1014.4
20260905133030 81 237 2.0 6.0 0.00 0.00 0.00 99 1014.3
20260905132526 81 250 2.0 6.0 0.00 0.00 0.00 100 1014.3
20260905132055 81 246 3.0 6.0 0.00 0.00 0.00 100 1014.3
20260905131550 81 190 1.0 5.0 0.00 0.00 0.00 100 1014.3
20260905131038 80 177 2.0 5.0 0.00 0.00 0.00 100 1014.3
20260905130534 80 239 2.0 4.0 0.00 0.00 0.00 100 1014.3
20260905130030 80 219 1.0 5.0 0.00 0.00 0.00 100 1014.3
20260905125537 79 172 3.0 5.0 0.00 0.00 0.00 100 1014.3
20260905125029 79 198 3.0 4.0 0.00 0.00 0.00 100 1014.3
20260905124538 78 240 1.0 3.0 0.00 0.00 0.00 100 1014.3
20260905124033 78 246 1.0 3.0 0.00 0.00 0.00 100 1014.3
20260905123603 78 221 1.0 3.0 0.00 0.00 0.00 100 1014.3
20260905123038 78 221 1.0 3.0 0.00 0.00 0.00 100 1014.3
20260905122554 78 216 0.0 0.0 0.00 0.00 0.00 100 1014.3
20260905122030 77 216 0.0 0.0 0.00 0.00 0.00 100 1014.3
20260905121527 77 216 0.0 0.0 0.00 0.00 0.00 100 1014.3
20260905121023 77 216 0.0 0.0 0.00 0.00 0.00 100 1014.3
20260905120539 77 216 0.0 0.0 0.00 0.00 0.00 100 1014.3
20260905120033 77 216 0.0 0.0 0.00 0.00 0.00 100 1014.1
20260905115549 77 216 0.0 0.0 0.00 0.00 0.00 100 1014.1
20260905115025 77 216 0.0 0.0 0.00 0.00 0.00 100 1014.1
20260905114524 77 216 0.0 0.0 0.00 0.00 0.00 100 1013.8
20260905114033 77 216 0.0 0.0 0.00 0.00 0.00 100 1013.8
20260905113529 77 205 0.0 0.0 0.00 0.00 0.00 100 1013.8
20260905113037 77 205 0.0 0.0 0.00 0.00 0.00 100 1013.7
20260905112554 77 205 0.0 0.0 0.00 0.00 0.00 100 1013.7
20260905112029 77 205 0.0 0.0 0.00 0.00 0.00 100 1013.7
20260905111537 77 205 0.0 0.0 0.00 0.00 0.00 100 1013.7
20260905111054 77 205 0.0 0.0 0.00 0.00 0.00 100 1013.7
20260905110529 77 205 0.0 0.0 0.00 0.00 0.00 100 1013.7
20260905110058 77 205 0.0 0.0 0.00 0.00 0.00 100 1013.5
20260905105532 77 205 0.0 0.0 0.00 0.00 0.00 100 1013.5
20260905105029 77 205 0.0 0.0 0.00 0.00 0.00 100 1013.5
20260905104526 77 205 0.0 0.0 0.00 0.00 0.00 100 1013.3
20260905104022 77 205 0.0 0.0 0.00 0.00 0.00 100 1013.3
20260905103539 77 205 0.0 0.0 0.00 0.00 0.00 100 1013.3
20260905103035 77 205 0.0 0.0 0.00 0.00 0.00 100 1013.3
20260905102530 77 205 0.0 0.0 0.00 0.00 0.00 100 1013.3
20260905102033 77 205 0.0 0.0 0.00 0.00 0.00 100 1013.3
20260905101528 77 205 0.0 0.0 0.00 0.00 0.00 100 1013.3
20260905101025 77 205 0.0 0.0 0.00 0.00 0.00 100 1013.3
20260905100533 77 205 0.0 0.0 0.00 0.00 0.00 100 1013.3
20260905100029 77 205 0.0 0.0 0.00 0.00 0.00 100 1013.5
20260905095526 77 205 0.0 0.0 0.00 0.00 0.00 100 1013.5
20260905095022 77 205 0.0 0.0 0.00 0.00 0.00 100 1013.5
20260905094533 77 205 0.0 0.0 0.00 0.00 0.00 100 1013.5
20260905094030 77 205 0.0 0.0 0.00 0.00 0.00 100 1013.5
20260905093546 77 205 0.0 0.0 0.00 0.00 0.00 100 1013.5
20260905093025 77 205 0.0 0.0 0.00 0.00 0.00 100 1013.2
20260905092542 77 205 0.0 0.0 0.00 0.00 0.00 100 1013.2
20260905092032 77 205 0.0 0.0 0.00 0.00 0.00 100 1013.2
20260905091528 77 205 0.0 1.0 0.00 0.00 0.00 100 1013.2
20260905091025 77 205 0.0 2.0 0.00 0.00 0.00 100 1013.2
20260905090533 77 205 0.0 2.0 0.00 0.00 0.00 100 1013.2
20260905090050 78 205 0.0 1.0 0.00 0.00 0.00 100 1013.2
20260905085524 78 205 0.0 2.0 0.00 0.00 0.00 100 1013.2
20260905085037 78 205 0.0 2.0 0.00 0.00 0.00 100 1013.2
20260905084533 78 205 1.0 2.0 0.00 0.00 0.00 100 1013.3
20260905084030 78 205 0.0 1.0 0.00 0.00 0.00 100 1013.3
20260905083537 78 205 0.0 2.0 0.00 0.00 0.00 100 1013.3
20260905083033 78 205 0.0 2.0 0.00 0.00 0.00 100 1013.2
20260905082530 78 205 1.0 2.0 0.00 0.00 0.00 100 1013.2
20260905082026 78 205 1.0 2.0 0.00 0.00 0.00 100 1013.2
20260905081534 78 205 0.0 2.0 0.00 0.00 0.00 100 1013.3
20260905081029 78 205 1.0 2.0 0.00 0.00 0.00 100 1013.3
20260905080557 78 183 1.0 2.0 0.00 0.00 0.00 100 1013.3
20260905080032 78 169 0.0 1.0 0.00 0.00 0.00 99 1013.4
20260905075529 78 169 0.0 1.0 0.00 0.00 0.00 99 1013.4
20260905075037 78 169 0.0 1.0 0.00 0.00 0.00 99 1013.4
20260905074547 78 169 0.0 2.0 0.00 0.00 0.00 99 1013.3
20260905074023 78 169 1.0 2.0 0.00 0.00 0.00 99 1013.3
20260905073538 78 169 0.0 2.0 0.00 0.00 0.00 99 1013.3
20260905073031 78 169 0.0 2.0 0.00 0.00 0.00 99 1013.3
20260905072546 78 169 0.0 2.0 0.00 0.00 0.00 99 1013.3
20260905072034 78 169 0.0 1.0 0.00 0.00 0.00 99 1013.3
20260905071551 78 200 0.0 0.0 0.00 0.00 0.00 99 1013.3
20260905071028 78 200 0.0 2.0 0.00 0.00 0.00 99 1013.3
20260905070523 78 200 1.0 2.0 0.00 0.00 0.00 99 1013.3
20260905070053 78 200 0.0 2.0 0.00 0.00 0.00 99 1013.4
20260905065528 78 200 1.0 2.0 0.00 0.00 0.00 98 1013.4
20260905065036 78 232 1.0 2.0 0.00 0.00 0.00 98 1013.4
20260905064532 78 232 0.0 1.0 0.00 0.00 0.00 98 1013.7
20260905064028 78 232 0.0 1.0 0.00 0.00 0.00 97 1013.7
20260905063536 78 236 0.0 2.0 0.00 0.00 0.00 97 1013.7
20260905063048 78 236 0.0 2.0 0.00 0.00 0.00 97 1013.8
20260905062535 78 236 1.0 2.0 0.00 0.00 0.00 97 1013.8
20260905062029 78 236 0.0 1.0 0.00 0.00 0.00 96 1013.8
20260905061525 78 236 0.0 2.0 0.00 0.00 0.00 96 1014.0
20260905061023 78 236 0.0 2.0 0.00 0.00 0.00 96 1014.0
20260905060538 79 236 1.0 2.0 0.00 0.00 0.00 96 1014.0
20260905060032 79 236 0.0 0.0 0.00 0.00 0.00 96 1014.3
20260905055529 79 236 0.0 1.0 0.00 0.00 0.00 96 1014.3
20260905055038 79 236 0.0 1.0 0.00 0.00 0.00 96 1014.3
20260905054534 79 236 0.0 1.0 0.00 0.00 0.00 96 1014.4
20260905054029 79 236 0.0 0.0 0.00 0.00 0.00 96 1014.4
20260905053529 79 236 0.0 1.0 0.00 0.00 0.00 96 1014.4
20260905053033 79 236 0.0 2.0 0.00 0.00 0.00 96 1014.7
20260905052529 79 236 0.0 2.0 0.00 0.00 0.00 96 1014.7
20260905052026 79 236 0.0 1.0 0.00 0.00 0.00 95 1014.7
20260905051600 79 236 0.0 1.0 0.00 0.00 0.00 94 1014.8
20260905051050 79 236 0.0 0.0 0.00 0.00 0.00 94 1014.8
20260905050525 79 236 0.0 0.0 0.00 0.00 0.00 94 1014.8
20260905050055 79 236 0.0 0.0 0.00 0.00 0.00 94 1015.0
20260905045530 79 236 0.0 0.0 0.00 0.00 0.00 93 1015.0
20260905045047 79 236 0.0 0.0 0.00 0.00 0.00 93 1015.0
20260905044527 79 236 0.0 0.0 0.00 0.00 0.00 93 1014.9
20260905044035 79 236 0.0 0.0 0.00 0.00 0.00 93 1014.9
20260905043529 79 236 0.0 2.0 0.00 0.00 0.00 93 1014.9
20260905043026 79 236 1.0 2.0 0.00 0.00 0.00 92 1015.0
20260905042535 79 236 0.0 2.0 0.00 0.00 0.00 92 1015.0
20260905042031 79 236 1.0 2.0 0.00 0.00 0.00 92 1015.0
20260905041523 79 236 1.0 1.0 0.00 0.00 0.00 91 1014.9
20260905041038 79 236 0.0 0.0 0.00 0.00 0.00 91 1014.9
20260905040534 79 236 0.0 0.0 0.00 0.00 0.00 90 1014.9
20260905040029 79 236 0.0 0.0 0.00 0.00 0.00 90 1015.0
20260905035552 79 236 0.0 0.0 0.00 0.00 0.00 90 1015.0
20260905035028 79 236 0.0 0.0 0.00 0.00 0.00 90 1015.0
20260905034523 80 236 0.0 0.0 0.00 0.00 0.00 90 1015.1
20260905034031 80 236 0.0 0.0 0.00 0.00 0.00 90 1015.1
20260905033548 80 236 0.0 0.0 0.00 0.00 0.00 89 1015.1
20260905033023 80 236 0.0 1.0 0.00 0.00 0.00 88 1015.0
20260905032533 80 236 0.0 1.0 0.00 0.00 0.00 88 1015.0
20260905032029 80 236 0.0 1.0 0.00 0.00 0.00 88 1015.0
20260905031533 80 236 0.0 0.0 0.00 0.00 0.00 88 1015.0
20260905031029 80 236 0.0 0.0 0.00 0.00 0.00 87 1015.0
20260905030527 80 236 0.0 0.0 0.00 0.00 0.00 87 1015.0
20260905030035 80 236 0.0 0.0 0.00 0.00 0.00 87 1014.9
20260905025553 80 236 0.0 2.0 0.00 0.00 0.00 87 1014.9
20260905025028 80 236 0.0 2.0 0.00 0.00 0.00 87 1014.9
20260905024538 80 236 1.0 1.0 0.00 0.00 0.00 87 1014.8
20260905024035 80 236 0.0 0.0 0.00 0.00 0.00 86 1014.8
20260905023531 80 236 0.0 0.0 0.00 0.00 0.00 86 1014.8
20260905023027 80 236 0.0 0.0 0.00 0.00 0.00 86 1014.8
20260905022534 80 236 0.0 0.0 0.00 0.00 0.00 86 1014.8
20260905022029 80 236 0.0 0.0 0.00 0.00 0.00 85 1014.8
20260905021526 81 236 0.0 1.0 0.00 0.00 0.00 85 1014.8
20260905021023 81 236 0.0 1.0 0.00 0.00 0.00 85 1014.8
20260905020539 81 236 0.0 1.0 0.00 0.00 0.00 85 1014.8
20260905020031 81 236 0.0 1.0 0.00 0.00 0.00 84 1014.8
20260905015528 81 236 0.0 1.0 0.00 0.00 0.00 84 1014.8
20260905015037 81 236 0.0 1.0 0.00 0.00 0.00 84 1014.8
20260905014531 81 236 0.0 1.0 0.00 0.00 0.00 83 1014.8
20260905014027 81 236 0.0 1.0 0.00 0.00 0.00 83 1014.8
20260905013535 81 236 0.0 1.0 0.00 0.00 0.00 83 1014.8
20260905013033 81 236 0.0 2.0 0.00 0.00 0.00 83 1014.8
20260905012545 81 236 0.0 2.0 0.00 0.00 0.00 83 1014.8
20260905012038 81 236 0.0 1.0 0.00 0.00 0.00 82 1014.8
20260905011554 81 236 0.0 2.0 0.00 0.00 0.00 82 1014.8
20260905011026 81 236 0.0 2.0 0.00 0.00 0.00 82 1014.8
20260905010534 82 236 0.0 1.0 0.00 0.00 0.00 82 1014.8
20260905010030 82 236 0.0 1.0 0.00 0.00 0.00 81 1014.4
20260905005527 82 236 0.0 1.0 0.00 0.00 0.00 80 1014.4
20260905005034 82 236 1.0 2.0 0.00 0.00 0.00 80 1014.4
20260905004530 82 236 0.0 2.0 0.00 0.00 0.00 80 1014.5
20260905004056 82 236 0.0 2.0 0.00 0.00 0.00 79 1014.5
20260905003531 82 236 1.0 3.0 0.00 0.00 0.00 79 1014.5
20260905003034 83 236 1.0 3.0 0.00 0.00 0.00 78 1014.3
20260905002531 83 236 0.0 3.0 0.00 0.00 0.00 78 1014.3
20260905002027 83 236 0.0 5.0 0.00 0.00 0.00 77 1014.3
20260905001538 84 233 3.0 7.0 0.00 0.00 0.00 76 1014.3
20260905001033 84 225 3.0 7.0 0.00 0.00 0.00 75 1014.3
20260905000528 85 213 3.0 7.0 0.00 0.00 0.00 74 1014.3
20260905000024 85 252 3.0 7.0 0.00 0.00 0.00 75 1014.3
20260904235535 85 239 2.0 3.0 0.00 0.00 0.00 78 1014.3
20260904235028 85 173 0.0 3.0 0.00 0.00 0.00 78 1014.3
20260904234534 85 169 1.0 5.0 0.00 0.00 0.00 78 1014.0
20260904234030 85 126 2.0 7.0 0.00 0.00 0.00 78 1014.0
20260904233528 85 150 2.0 6.0 0.00 0.00 0.00 78 1014.0
20260904233024 85 153 2.0 7.0 0.00 0.00 0.00 78 1013.8
20260904232601 85 146 2.0 10.0 0.00 0.00 0.00 78 1013.8
20260904232056 85 131 2.0 10.0 0.00 0.00 0.00 78 1013.8
20260904231528 86 143 2.0 7.0 0.00 0.00 0.00 79 1013.8
20260904231023 86 167 3.0 6.0 0.00 0.00 0.00 78 1013.8
20260904230539 86 158 1.0 6.0 0.00 0.00 0.00 78 1013.8
20260904230031 86 29 2.0 6.0 0.00 0.00 0.00 77 1013.7
20260904225550 86 165 0.0 5.0 0.00 0.00 0.00 77 1013.7
20260904225057 86 139 1.0 5.0 0.00 0.00 0.00 77 1013.7
20260904224532 86 130 2.0 7.0 0.00 0.00 0.00 76 1013.3
20260904224027 86 230 3.0 5.0 0.00 0.00 0.00 76 1013.3
20260904223535 86 159 1.0 6.0 0.00 0.00 0.00 76 1013.3
20260904223031 86 130 2.0 6.0 0.00 0.00 0.00 75 1013.1
20260904222525 86 96 2.0 5.0 0.00 0.00 0.00 75 1013.1
20260904222035 87 155 1.0 9.0 0.00 0.00 0.00 74 1013.1
20260904221531 87 150 2.0 12.0 0.00 0.00 0.00 74 1013.0
20260904221026 87 190 3.0 12.0 0.00 0.00 0.00 73 1013.0
20260904220535 87 150 3.0 9.0 0.00 0.00 0.00 72 1013.0
20260904220031 87 176 3.0 9.0 0.00 0.00 0.00 72 1013.1
20260904215527 87 87 1.0 9.0 0.00 0.00 0.00 72 1013.1
20260904215033 87 188 3.0 10.0 0.00 0.00 0.00 72 1013.1
20260904214527 87 143 2.0 10.0 0.00 0.00 0.00 72 1013.3
20260904214042 88 61 4.0 9.0 0.00 0.00 0.00 72 1013.3
20260904213531 88 153 2.0 10.0 0.00 0.00 0.00 71 1013.3
20260904213027 88 141 3.0 10.0 0.00 0.00 0.00 71 1013.6
20260904212523 88 43 1.0 10.0 0.00 0.00 0.00 72 1013.6
20260904212052 88 217 2.0 11.0 0.00 0.00 0.00 71 1013.6
20260904211527 88 133 5.0 11.0 0.00 0.00 0.00 72 1013.8
20260904211024 88 162 3.0 9.0 0.00 0.00 0.00 72 1013.8
20260904210533 88 139 2.0 12.0 0.00 0.00 0.00 72 1013.8
20260904210030 88 166 3.0 9.0 0.00 0.00 0.00 73 1013.8
20260904205526 88 152 2.0 7.0 0.00 0.00 0.00 73 1013.8
20260904205035 89 160 2.0 6.0 0.00 0.00 0.00 73 1013.8